Year,Month,Day,Hour,Minute,Value (Times are PST for temperature in C)
2016,09,14,00,00,12.90
2016,09,14,00,01,12.90
2016,09,14,00,02,12.90
2016,09,14,00,03,12.90
2016,09,14,00,04,12.90
2016,09,14,00,05,12.90
2016,09,14,00,06,12.90
2016,09,14,00,07,12.90
2016,09,14,00,08,12.90
2016,09,14,00,09,12.90
2016,09,14,00,10,13.00
2016,09,14,00,11,13.00
2016,09,14,00,12,13.00
2016,09,14,00,13,13.00
2016,09,14,00,14,13.00
2016,09,14,00,15,12.90
2016,09,14,00,16,12.90
2016,09,14,00,17,12.90
2016,09,14,00,18,12.90
2016,09,14,00,19,12.90
2016,09,14,00,20,12.90
2016,09,14,00,21,12.90
2016,09,14,00,22,12.90
2016,09,14,00,23,13.00
2016,09,14,00,24,13.00
2016,09,14,00,25,13.10
2016,09,14,00,26,13.10
2016,09,14,00,27,13.20
2016,09,14,00,28,13.20
2016,09,14,00,29,13.20
2016,09,14,00,30,13.20
2016,09,14,00,31,13.20
2016,09,14,00,32,13.20
2016,09,14,00,33,13.20
2016,09,14,00,34,13.20
2016,09,14,00,35,13.20
2016,09,14,00,36,13.20
2016,09,14,00,37,13.20
2016,09,14,00,38,13.20
2016,09,14,00,39,13.20
2016,09,14,00,40,13.20
2016,09,14,00,41,13.10
2016,09,14,00,42,13.10
2016,09,14,00,43,13.10
2016,09,14,00,44,13.00
2016,09,14,00,45,13.00
2016,09,14,00,46,13.10
2016,09,14,00,47,13.10
2016,09,14,00,48,13.10
2016,09,14,00,49,13.10
2016,09,14,00,50,13.20
2016,09,14,00,51,13.20
2016,09,14,00,52,13.30
2016,09,14,00,53,13.40
2016,09,14,00,54,13.50
2016,09,14,00,55,13.50
2016,09,14,00,56,13.40
2016,09,14,00,57,13.40
2016,09,14,00,58,13.30
2016,09,14,00,59,13.30
2016,09,14,01,00,13.30
2016,09,14,01,01,13.20
2016,09,14,01,02,13.20
2016,09,14,01,03,13.30
2016,09,14,01,04,13.30
2016,09,14,01,05,13.30
2016,09,14,01,06,13.30
2016,09,14,01,07,13.30
2016,09,14,01,08,13.30
2016,09,14,01,09,13.30
2016,09,14,01,10,13.20
2016,09,14,01,11,13.20
2016,09,14,01,12,13.20
2016,09,14,01,13,13.10
2016,09,14,01,14,13.10
2016,09,14,01,15,13.00
2016,09,14,01,16,13.00
2016,09,14,01,17,13.00
2016,09,14,01,18,13.00
2016,09,14,01,19,12.90
2016,09,14,01,20,13.00
2016,09,14,01,21,13.10
2016,09,14,01,22,13.10
2016,09,14,01,23,13.10
2016,09,14,01,24,13.10
2016,09,14,01,25,13.10
2016,09,14,01,26,13.10
2016,09,14,01,27,13.00
2016,09,14,01,28,13.00
2016,09,14,01,29,13.00
2016,09,14,01,30,13.00
2016,09,14,01,31,12.90
2016,09,14,01,32,12.90
2016,09,14,01,33,12.90
2016,09,14,01,34,12.90
2016,09,14,01,35,12.80
2016,09,14,01,36,12.80
2016,09,14,01,37,12.80
2016,09,14,01,38,12.80
2016,09,14,01,39,12.70
2016,09,14,01,40,12.70
2016,09,14,01,41,12.70
2016,09,14,01,42,12.60
2016,09,14,01,43,12.60
2016,09,14,01,44,12.60
2016,09,14,01,45,12.50
2016,09,14,01,46,12.50
2016,09,14,01,47,12.40
2016,09,14,01,48,12.40
2016,09,14,01,49,12.40
2016,09,14,01,50,12.30
2016,09,14,01,51,12.30
2016,09,14,01,52,12.20
2016,09,14,01,53,12.20
2016,09,14,01,54,12.20
2016,09,14,01,55,12.10
2016,09,14,01,56,12.10
2016,09,14,01,57,12.10
2016,09,14,01,58,12.10
2016,09,14,01,59,12.00
2016,09,14,02,00,12.00
2016,09,14,02,01,12.00
2016,09,14,02,02,12.10
2016,09,14,02,03,12.10
2016,09,14,02,04,12.20
2016,09,14,02,05,12.20
2016,09,14,02,06,12.20
2016,09,14,02,07,12.20
2016,09,14,02,08,12.20
2016,09,14,02,09,12.20
2016,09,14,02,10,12.20
2016,09,14,02,11,12.20
2016,09,14,02,12,12.10
2016,09,14,02,13,12.10
2016,09,14,02,14,12.10
2016,09,14,02,15,12.10
2016,09,14,02,16,12.10
2016,09,14,02,17,12.10
2016,09,14,02,18,12.00
2016,09,14,02,19,12.00
2016,09,14,02,20,12.00
2016,09,14,02,21,11.90
2016,09,14,02,22,11.90
2016,09,14,02,23,11.90
2016,09,14,02,24,11.80
2016,09,14,02,25,11.80
2016,09,14,02,26,11.70
2016,09,14,02,27,11.70
2016,09,14,02,28,11.60
2016,09,14,02,29,11.60
2016,09,14,02,30,11.60
2016,09,14,02,31,11.60
2016,09,14,02,32,11.60
2016,09,14,02,33,11.60
2016,09,14,02,34,11.60
2016,09,14,02,35,11.60
2016,09,14,02,36,11.60
2016,09,14,02,37,11.60
2016,09,14,02,38,11.70
2016,09,14,02,39,11.80
2016,09,14,02,40,11.80
2016,09,14,02,41,11.80
2016,09,14,02,42,11.90
2016,09,14,02,43,11.90
2016,09,14,02,44,11.90
2016,09,14,02,45,11.90
2016,09,14,02,46,11.90
2016,09,14,02,47,11.90
2016,09,14,02,48,11.90
2016,09,14,02,49,11.90
2016,09,14,02,50,11.90
2016,09,14,02,51,12.00
2016,09,14,02,52,12.00
2016,09,14,02,53,12.10
2016,09,14,02,54,12.20
2016,09,14,02,55,12.30
2016,09,14,02,56,12.30
2016,09,14,02,57,12.30
2016,09,14,02,58,12.30
2016,09,14,02,59,12.30
2016,09,14,03,00,12.30
2016,09,14,03,01,12.30
2016,09,14,03,02,12.30
2016,09,14,03,03,12.30
2016,09,14,03,04,12.30
2016,09,14,03,05,12.30
2016,09,14,03,06,12.30
2016,09,14,03,07,12.30
2016,09,14,03,08,12.30
2016,09,14,03,09,12.30
2016,09,14,03,10,12.40
2016,09,14,03,11,12.40
2016,09,14,03,12,12.40
2016,09,14,03,13,12.50
2016,09,14,03,14,12.50
2016,09,14,03,15,12.60
2016,09,14,03,16,12.60
2016,09,14,03,17,12.60
2016,09,14,03,18,12.60
2016,09,14,03,19,12.60
2016,09,14,03,20,12.60
2016,09,14,03,21,12.60
2016,09,14,03,22,12.60
2016,09,14,03,23,12.60
2016,09,14,03,24,12.60
2016,09,14,03,25,12.60
2016,09,14,03,26,12.70
2016,09,14,03,27,12.70
2016,09,14,03,28,12.70
2016,09,14,03,29,12.70
2016,09,14,03,30,12.70
2016,09,14,03,31,12.70
2016,09,14,03,32,12.70
2016,09,14,03,33,12.70
2016,09,14,03,34,12.70
2016,09,14,03,35,12.70
2016,09,14,03,36,12.60
2016,09,14,03,37,12.60
2016,09,14,03,38,12.50
2016,09,14,03,39,12.50
2016,09,14,03,40,12.40
2016,09,14,03,41,12.40
2016,09,14,03,42,12.30
2016,09,14,03,43,12.30
2016,09,14,03,44,12.30
2016,09,14,03,45,12.30
2016,09,14,03,46,12.30
2016,09,14,03,47,12.30
2016,09,14,03,48,12.30
2016,09,14,03,49,12.40
2016,09,14,03,50,12.40
2016,09,14,03,51,12.50
2016,09,14,03,52,12.50
2016,09,14,03,53,12.50
2016,09,14,03,54,12.60
2016,09,14,03,55,12.60
2016,09,14,03,56,12.60
2016,09,14,03,57,12.50
2016,09,14,03,58,12.50
2016,09,14,03,59,12.50
2016,09,14,04,00,12.60
2016,09,14,04,01,12.60
2016,09,14,04,02,12.60
2016,09,14,04,03,12.60
2016,09,14,04,04,12.60
2016,09,14,04,05,12.60
2016,09,14,04,06,12.50
2016,09,14,04,07,12.50
2016,09,14,04,08,12.50
2016,09,14,04,09,12.40
2016,09,14,04,10,12.40
2016,09,14,04,11,12.40
2016,09,14,04,12,12.40
2016,09,14,04,13,12.40
2016,09,14,04,14,12.40
2016,09,14,04,15,12.30
2016,09,14,04,16,12.30
2016,09,14,04,17,12.30
2016,09,14,04,18,12.30
2016,09,14,04,19,12.30
2016,09,14,04,20,12.30
2016,09,14,04,21,12.30
2016,09,14,04,22,12.40
2016,09,14,04,23,12.40
2016,09,14,04,24,12.30
2016,09,14,04,25,12.30
2016,09,14,04,26,12.30
2016,09,14,04,27,12.30
2016,09,14,04,28,12.30
2016,09,14,04,29,12.30
2016,09,14,04,30,12.30
2016,09,14,04,31,12.30
2016,09,14,04,32,12.30
2016,09,14,04,33,12.30
2016,09,14,04,34,12.20
2016,09,14,04,35,12.20
2016,09,14,04,36,12.10
2016,09,14,04,37,12.10
2016,09,14,04,38,12.10
2016,09,14,04,39,12.10
2016,09,14,04,40,12.10
2016,09,14,04,41,12.10
2016,09,14,04,42,12.20
2016,09,14,04,43,12.20
2016,09,14,04,44,12.20
2016,09,14,04,45,12.20
2016,09,14,04,46,12.20
2016,09,14,04,47,12.20
2016,09,14,04,48,12.20
2016,09,14,04,49,12.20
2016,09,14,04,50,12.20
2016,09,14,04,51,12.20
2016,09,14,04,52,12.20
2016,09,14,04,53,12.10
2016,09,14,04,54,12.10
2016,09,14,04,55,12.10
2016,09,14,04,56,12.10
2016,09,14,04,57,12.10
2016,09,14,04,58,12.00
2016,09,14,04,59,12.00
2016,09,14,05,00,12.00
2016,09,14,05,01,12.00
2016,09,14,05,02,12.00
2016,09,14,05,03,12.00
2016,09,14,05,04,11.90
2016,09,14,05,05,12.00
2016,09,14,05,06,12.00
2016,09,14,05,07,12.00
2016,09,14,05,08,12.00
2016,09,14,05,09,12.00
2016,09,14,05,10,12.00
2016,09,14,05,11,12.00
2016,09,14,05,12,12.00
2016,09,14,05,13,12.00
2016,09,14,05,14,12.10
2016,09,14,05,15,12.10
2016,09,14,05,16,12.10
2016,09,14,05,17,12.10
2016,09,14,05,18,12.10
2016,09,14,05,19,12.10
2016,09,14,05,20,12.00
2016,09,14,05,21,12.00
2016,09,14,05,22,12.00
2016,09,14,05,23,12.00
2016,09,14,05,24,12.00
2016,09,14,05,25,11.90
2016,09,14,05,26,11.90
2016,09,14,05,27,11.90
2016,09,14,05,28,11.90
2016,09,14,05,29,11.80
2016,09,14,05,30,11.80
2016,09,14,05,31,11.80
2016,09,14,05,32,11.80
2016,09,14,05,33,11.80
2016,09,14,05,34,11.70
2016,09,14,05,35,11.70
2016,09,14,05,36,11.70
2016,09,14,05,37,11.70
2016,09,14,05,38,11.70
2016,09,14,05,39,11.70
2016,09,14,05,40,11.70
2016,09,14,05,41,11.70
2016,09,14,05,42,11.70
2016,09,14,05,43,11.60
2016,09,14,05,44,11.60
2016,09,14,05,45,11.60
2016,09,14,05,46,11.60
2016,09,14,05,47,11.60
2016,09,14,05,48,11.50
2016,09,14,05,49,11.50
2016,09,14,05,50,11.40
2016,09,14,05,51,11.40
2016,09,14,05,52,11.40
2016,09,14,05,53,11.50
2016,09,14,05,54,11.50
2016,09,14,05,55,11.50
2016,09,14,05,56,11.50
2016,09,14,05,57,11.50
2016,09,14,05,58,11.50
2016,09,14,05,59,11.50
2016,09,14,06,00,11.50
2016,09,14,06,01,11.40
2016,09,14,06,02,11.40
2016,09,14,06,03,11.40
2016,09,14,06,04,11.40
2016,09,14,06,05,11.40
2016,09,14,06,06,11.30
2016,09,14,06,07,11.30
2016,09,14,06,08,11.30
2016,09,14,06,09,11.30
2016,09,14,06,10,11.20
2016,09,14,06,11,11.20
2016,09,14,06,12,11.20
2016,09,14,06,13,11.10
2016,09,14,06,14,11.10
2016,09,14,06,15,11.10
2016,09,14,06,16,11.10
2016,09,14,06,17,11.00
2016,09,14,06,18,11.00
2016,09,14,06,19,11.00
2016,09,14,06,20,10.90
2016,09,14,06,21,10.90
2016,09,14,06,22,10.90
2016,09,14,06,23,10.90
2016,09,14,06,24,10.90
2016,09,14,06,25,10.90
2016,09,14,06,26,10.90
2016,09,14,06,27,10.90
2016,09,14,06,28,10.80
2016,09,14,06,29,10.80
2016,09,14,06,30,10.80
2016,09,14,06,31,10.80
2016,09,14,06,32,10.80
2016,09,14,06,33,10.80
2016,09,14,06,34,10.80
2016,09,14,06,35,10.70
2016,09,14,06,36,10.70
2016,09,14,06,37,10.70
2016,09,14,06,38,10.70
2016,09,14,06,39,10.70
2016,09,14,06,40,10.70
2016,09,14,06,41,10.70
2016,09,14,06,42,10.70
2016,09,14,06,43,10.70
2016,09,14,06,44,10.70
2016,09,14,06,45,10.70
2016,09,14,06,46,10.70
2016,09,14,06,47,10.70
2016,09,14,06,48,10.70
2016,09,14,06,49,10.60
2016,09,14,06,50,10.60
2016,09,14,06,51,10.60
2016,09,14,06,52,10.60
2016,09,14,06,53,10.60
2016,09,14,06,54,10.60
2016,09,14,06,55,10.60
2016,09,14,06,56,10.60
2016,09,14,06,57,10.50
2016,09,14,06,58,10.50
2016,09,14,06,59,10.50
2016,09,14,07,00,10.50
2016,09,14,07,01,10.50
2016,09,14,07,02,10.50
2016,09,14,07,03,10.50
2016,09,14,07,04,10.50
2016,09,14,07,05,10.50
2016,09,14,07,06,10.50
2016,09,14,07,07,10.50
2016,09,14,07,08,10.40
2016,09,14,07,09,10.40
2016,09,14,07,10,10.40
2016,09,14,07,11,10.40
2016,09,14,07,12,10.40
2016,09,14,07,13,10.50
2016,09,14,07,14,10.50
2016,09,14,07,15,10.50
2016,09,14,07,16,10.50
2016,09,14,07,17,10.50
2016,09,14,07,18,10.50
2016,09,14,07,19,10.50
2016,09,14,07,20,10.50
2016,09,14,07,21,10.50
2016,09,14,07,22,10.50
2016,09,14,07,23,10.60
2016,09,14,07,24,10.60
2016,09,14,07,25,10.60
2016,09,14,07,26,10.60
2016,09,14,07,27,10.60
2016,09,14,07,28,10.60
2016,09,14,07,29,10.60
2016,09,14,07,30,10.60
2016,09,14,07,31,10.60
2016,09,14,07,32,10.70
2016,09,14,07,33,10.70
2016,09,14,07,34,10.70
2016,09,14,07,35,10.70
2016,09,14,07,36,10.70
2016,09,14,07,37,10.70
2016,09,14,07,38,10.70
2016,09,14,07,39,10.70
2016,09,14,07,40,10.70
2016,09,14,07,41,10.70
2016,09,14,07,42,10.70
2016,09,14,07,43,10.70
2016,09,14,07,44,10.70
2016,09,14,07,45,10.70
2016,09,14,07,46,10.70
2016,09,14,07,47,10.70
2016,09,14,07,48,10.70
2016,09,14,07,49,10.70
2016,09,14,07,50,10.70
2016,09,14,07,51,10.80
2016,09,14,07,52,10.80
2016,09,14,07,53,10.80
2016,09,14,07,54,10.90
2016,09,14,07,55,10.90
2016,09,14,07,56,11.00
2016,09,14,07,57,11.00
2016,09,14,07,58,11.10
2016,09,14,07,59,11.10
2016,09,14,08,00,11.20
2016,09,14,08,01,11.30
2016,09,14,08,02,11.30
2016,09,14,08,03,11.40
2016,09,14,08,04,11.40
2016,09,14,08,05,11.50
2016,09,14,08,06,11.60
2016,09,14,08,07,11.60
2016,09,14,08,08,11.70
2016,09,14,08,09,11.70
2016,09,14,08,10,11.80
2016,09,14,08,11,11.80
2016,09,14,08,12,11.90
2016,09,14,08,13,11.90
2016,09,14,08,14,12.00
2016,09,14,08,15,12.10
2016,09,14,08,16,12.10
2016,09,14,08,17,12.10
2016,09,14,08,18,12.20
2016,09,14,08,19,12.20
2016,09,14,08,20,12.30
2016,09,14,08,21,12.30
2016,09,14,08,22,12.30
2016,09,14,08,23,12.30
2016,09,14,08,24,12.40
2016,09,14,08,25,12.40
2016,09,14,08,26,12.50
2016,09,14,08,27,12.50
2016,09,14,08,28,12.60
2016,09,14,08,29,12.70
2016,09,14,08,30,12.70
2016,09,14,08,31,12.80
2016,09,14,08,32,12.80
2016,09,14,08,33,12.90
2016,09,14,08,34,13.00
2016,09,14,08,35,13.10
2016,09,14,08,36,13.20
2016,09,14,08,37,13.20
2016,09,14,08,38,13.30
2016,09,14,08,39,13.30
2016,09,14,08,40,13.40
2016,09,14,08,41,13.40
2016,09,14,08,42,13.50
2016,09,14,08,43,13.60
2016,09,14,08,44,13.60
2016,09,14,08,45,13.70
2016,09,14,08,46,13.70
2016,09,14,08,47,13.80
2016,09,14,08,48,13.90
2016,09,14,08,49,13.90
2016,09,14,08,50,14.00
2016,09,14,08,51,14.00
2016,09,14,08,52,14.10
2016,09,14,08,53,14.10
2016,09,14,08,54,14.20
2016,09,14,08,55,14.20
2016,09,14,08,56,14.30
2016,09,14,08,57,14.30
2016,09,14,08,58,14.40
2016,09,14,08,59,14.40
2016,09,14,09,00,14.40
2016,09,14,09,01,14.40
2016,09,14,09,02,14.50
2016,09,14,09,03,14.50
2016,09,14,09,04,14.60
2016,09,14,09,05,14.60
2016,09,14,09,06,14.60
2016,09,14,09,07,14.70
2016,09,14,09,08,14.70
2016,09,14,09,09,14.80
2016,09,14,09,10,14.90
2016,09,14,09,11,14.90
2016,09,14,09,12,15.00
2016,09,14,09,13,15.00
2016,09,14,09,14,15.10
2016,09,14,09,15,15.10
2016,09,14,09,16,15.10
2016,09,14,09,17,15.10
2016,09,14,09,18,15.10
2016,09,14,09,19,15.20
2016,09,14,09,20,15.20
2016,09,14,09,21,15.20
2016,09,14,09,22,15.30
2016,09,14,09,23,15.30
2016,09,14,09,24,15.30
2016,09,14,09,25,15.40
2016,09,14,09,26,15.40
2016,09,14,09,27,15.40
2016,09,14,09,28,15.40
2016,09,14,09,29,15.50
2016,09,14,09,30,15.50
2016,09,14,09,31,15.50
2016,09,14,09,32,15.50
2016,09,14,09,33,15.60
2016,09,14,09,34,15.60
2016,09,14,09,35,15.70
2016,09,14,09,36,15.70
2016,09,14,09,37,15.80
2016,09,14,09,38,15.80
2016,09,14,09,39,15.80
2016,09,14,09,40,15.90
2016,09,14,09,41,15.90
2016,09,14,09,42,15.90
2016,09,14,09,43,15.90
2016,09,14,09,44,15.90
2016,09,14,09,45,16.00
2016,09,14,09,46,16.00
2016,09,14,09,47,16.10
2016,09,14,09,48,16.10
2016,09,14,09,49,16.10
2016,09,14,09,50,16.10
2016,09,14,09,51,16.10
2016,09,14,09,52,16.10
2016,09,14,09,53,16.10
2016,09,14,09,54,16.10
2016,09,14,09,55,16.20
2016,09,14,09,56,16.20
2016,09,14,09,57,16.30
2016,09,14,09,58,16.30
2016,09,14,09,59,16.50
2016,09,14,10,00,16.50
2016,09,14,10,01,16.60
2016,09,14,10,02,16.60
2016,09,14,10,03,16.60
2016,09,14,10,04,16.70
2016,09,14,10,05,16.70
2016,09,14,10,06,16.70
2016,09,14,10,07,16.70
2016,09,14,10,08,16.80
2016,09,14,10,09,16.80
2016,09,14,10,10,16.80
2016,09,14,10,11,16.80
2016,09,14,10,12,16.90
2016,09,14,10,13,16.90
2016,09,14,10,14,16.90
2016,09,14,10,15,17.00
2016,09,14,10,16,17.00
2016,09,14,10,17,17.10
2016,09,14,10,18,17.20
2016,09,14,10,19,17.20
2016,09,14,10,20,17.30
2016,09,14,10,21,17.30
2016,09,14,10,22,17.30
2016,09,14,10,23,17.30
2016,09,14,10,24,17.30
2016,09,14,10,25,17.30
2016,09,14,10,26,17.30
2016,09,14,10,27,17.30
2016,09,14,10,28,17.40
2016,09,14,10,29,17.40
2016,09,14,10,30,17.30
2016,09,14,10,31,17.30
2016,09,14,10,32,17.40
2016,09,14,10,33,17.40
2016,09,14,10,34,17.40
2016,09,14,10,35,17.50
2016,09,14,10,36,17.60
2016,09,14,10,37,17.70
2016,09,14,10,38,17.70
2016,09,14,10,39,17.80
2016,09,14,10,40,17.90
2016,09,14,10,41,17.90
2016,09,14,10,42,17.90
2016,09,14,10,43,17.90
2016,09,14,10,44,17.90
2016,09,14,10,45,17.90
2016,09,14,10,46,18.00
2016,09,14,10,47,18.10
2016,09,14,10,48,18.20
2016,09,14,10,49,18.20
2016,09,14,10,50,18.20
2016,09,14,10,51,18.20
2016,09,14,10,52,18.20
2016,09,14,10,53,18.20
2016,09,14,10,54,18.30
2016,09,14,10,55,18.30
2016,09,14,10,56,18.20
2016,09,14,10,57,18.20
2016,09,14,10,58,18.20
2016,09,14,10,59,18.20
2016,09,14,11,00,18.20
2016,09,14,11,01,18.20
2016,09,14,11,02,18.20
2016,09,14,11,03,18.20
2016,09,14,11,04,18.20
2016,09,14,11,05,18.20
2016,09,14,11,06,18.30
2016,09,14,11,07,18.30
2016,09,14,11,08,18.40
2016,09,14,11,09,18.40
2016,09,14,11,10,18.50
2016,09,14,11,11,18.50
2016,09,14,11,12,18.50
2016,09,14,11,13,18.50
2016,09,14,11,14,18.50
2016,09,14,11,15,18.50
2016,09,14,11,16,18.50
2016,09,14,11,17,18.60
2016,09,14,11,18,18.60
2016,09,14,11,19,18.60
2016,09,14,11,20,18.60
2016,09,14,11,21,18.60
2016,09,14,11,22,18.70
2016,09,14,11,23,18.70
2016,09,14,11,24,18.80
2016,09,14,11,25,18.80
2016,09,14,11,26,18.80
2016,09,14,11,27,18.80
2016,09,14,11,28,18.80
2016,09,14,11,29,18.90
2016,09,14,11,30,18.90
2016,09,14,11,31,19.00
2016,09,14,11,32,18.90
2016,09,14,11,33,18.90
2016,09,14,11,34,19.00
2016,09,14,11,35,19.00
2016,09,14,11,36,19.10
2016,09,14,11,37,19.10
2016,09,14,11,38,19.20
2016,09,14,11,39,19.30
2016,09,14,11,40,19.40
2016,09,14,11,41,19.40
2016,09,14,11,42,19.50
2016,09,14,11,43,19.50
2016,09,14,11,44,19.50
2016,09,14,11,45,19.50
2016,09,14,11,46,19.50
2016,09,14,11,47,19.50
2016,09,14,11,48,19.50
2016,09,14,11,49,19.50
2016,09,14,11,50,19.50
2016,09,14,11,51,19.50
2016,09,14,11,52,19.50
2016,09,14,11,53,19.50
2016,09,14,11,54,19.40
2016,09,14,11,55,19.40
2016,09,14,11,56,19.40
2016,09,14,11,57,19.40
2016,09,14,11,58,19.40
2016,09,14,11,59,19.50
2016,09,14,12,00,19.50
2016,09,14,12,01,19.50
2016,09,14,12,02,19.60
2016,09,14,12,03,19.60
2016,09,14,12,04,19.60
2016,09,14,12,05,19.70
2016,09,14,12,06,19.70
2016,09,14,12,07,19.70
2016,09,14,12,08,19.80
2016,09,14,12,09,19.80
2016,09,14,12,10,19.80
2016,09,14,12,11,19.90
2016,09,14,12,12,20.00
2016,09,14,12,13,19.90
2016,09,14,12,14,19.90
2016,09,14,12,15,20.00
2016,09,14,12,16,20.00
2016,09,14,12,17,20.10
2016,09,14,12,18,20.10
2016,09,14,12,19,20.10
2016,09,14,12,20,20.20
2016,09,14,12,21,20.20
2016,09,14,12,22,20.30
2016,09,14,12,23,20.30
2016,09,14,12,24,20.20
2016,09,14,12,25,20.20
2016,09,14,12,26,20.20
2016,09,14,12,27,20.20
2016,09,14,12,28,20.30
2016,09,14,12,29,20.30
2016,09,14,12,30,20.40
2016,09,14,12,31,20.50
2016,09,14,12,32,20.60
2016,09,14,12,33,20.60
2016,09,14,12,34,20.60
2016,09,14,12,35,20.60
2016,09,14,12,36,20.60
2016,09,14,12,37,20.60
2016,09,14,12,38,20.70
2016,09,14,12,39,20.70
2016,09,14,12,40,20.80
2016,09,14,12,41,20.80
2016,09,14,12,42,20.90
2016,09,14,12,43,20.90
2016,09,14,12,44,20.90
2016,09,14,12,45,20.90
2016,09,14,12,46,20.90
2016,09,14,12,47,21.00
2016,09,14,12,48,21.10
2016,09,14,12,49,21.10
2016,09,14,12,50,21.10
2016,09,14,12,51,21.10
2016,09,14,12,52,21.10
2016,09,14,12,53,21.10
2016,09,14,12,54,21.20
2016,09,14,12,55,21.20
2016,09,14,12,56,21.30
2016,09,14,12,57,21.30
2016,09,14,12,58,21.30
2016,09,14,12,59,21.30
2016,09,14,13,00,21.20
2016,09,14,13,01,21.20
2016,09,14,13,02,21.10
2016,09,14,13,03,21.00
2016,09,14,13,04,21.00
2016,09,14,13,05,20.90
2016,09,14,13,06,20.90
2016,09,14,13,07,20.80
2016,09,14,13,08,20.70
2016,09,14,13,09,20.60
2016,09,14,13,10,20.60
2016,09,14,13,11,20.60
2016,09,14,13,12,20.60
2016,09,14,13,13,20.60
2016,09,14,13,14,20.70
2016,09,14,13,15,20.80
2016,09,14,13,16,20.80
2016,09,14,13,17,20.80
2016,09,14,13,18,20.80
2016,09,14,13,19,20.80
2016,09,14,13,20,20.80
2016,09,14,13,21,20.70
2016,09,14,13,22,20.60
2016,09,14,13,23,20.50
2016,09,14,13,24,20.40
2016,09,14,13,25,20.40
2016,09,14,13,26,20.40
2016,09,14,13,27,20.50
2016,09,14,13,28,20.60
2016,09,14,13,29,20.70
2016,09,14,13,30,20.70
2016,09,14,13,31,20.80
2016,09,14,13,32,20.80
2016,09,14,13,33,20.90
2016,09,14,13,34,20.90
2016,09,14,13,35,21.00
2016,09,14,13,36,21.00
2016,09,14,13,37,21.10
2016,09,14,13,38,21.10
2016,09,14,13,39,21.00
2016,09,14,13,40,21.00
2016,09,14,13,41,21.10
2016,09,14,13,42,21.10
2016,09,14,13,43,21.00
2016,09,14,13,44,21.00
2016,09,14,13,45,20.90
2016,09,14,13,46,20.90
2016,09,14,13,47,20.90
2016,09,14,13,48,20.90
2016,09,14,13,49,20.80
2016,09,14,13,50,20.80
2016,09,14,13,51,20.80
2016,09,14,13,52,20.80
2016,09,14,13,53,20.90
2016,09,14,13,54,20.90
2016,09,14,13,55,21.00
2016,09,14,13,56,21.00
2016,09,14,13,57,21.00
2016,09,14,13,58,21.00
2016,09,14,13,59,21.00
2016,09,14,14,00,21.00
2016,09,14,14,01,21.00
2016,09,14,14,02,21.10
2016,09,14,14,03,21.10
2016,09,14,14,04,21.20
2016,09,14,14,05,21.20
2016,09,14,14,06,21.30
2016,09,14,14,07,21.30
2016,09,14,14,08,21.30
2016,09,14,14,09,21.40
2016,09,14,14,10,21.50
2016,09,14,14,11,21.50
2016,09,14,14,12,21.60
2016,09,14,14,13,21.60
2016,09,14,14,14,21.60
2016,09,14,14,15,21.70
2016,09,14,14,16,21.80
2016,09,14,14,17,21.90
2016,09,14,14,18,21.90
2016,09,14,14,19,21.90
2016,09,14,14,20,22.00
2016,09,14,14,21,22.00
2016,09,14,14,22,22.00
2016,09,14,14,23,22.00
2016,09,14,14,24,21.90
2016,09,14,14,25,21.90
2016,09,14,14,26,21.80
2016,09,14,14,27,21.80
2016,09,14,14,28,21.80
2016,09,14,14,29,21.70
2016,09,14,14,30,21.70
2016,09,14,14,31,21.70
2016,09,14,14,32,21.70
2016,09,14,14,33,21.70
2016,09,14,14,34,21.70
2016,09,14,14,35,21.70
2016,09,14,14,36,21.70
2016,09,14,14,37,21.70
2016,09,14,14,38,21.70
2016,09,14,14,39,21.80
2016,09,14,14,40,21.80
2016,09,14,14,41,21.80
2016,09,14,14,42,21.80
2016,09,14,14,43,21.80
2016,09,14,14,44,21.80
2016,09,14,14,45,21.80
2016,09,14,14,46,21.70
2016,09,14,14,47,21.70
2016,09,14,14,48,21.70
2016,09,14,14,49,21.60
2016,09,14,14,50,21.60
2016,09,14,14,51,21.60
2016,09,14,14,52,21.50
2016,09,14,14,53,21.50
2016,09,14,14,54,21.40
2016,09,14,14,55,21.40
2016,09,14,14,56,21.40
2016,09,14,14,57,21.40
2016,09,14,14,58,21.40
2016,09,14,14,59,21.50
2016,09,14,15,00,21.50
2016,09,14,15,01,21.60
2016,09,14,15,02,21.60
2016,09,14,15,03,21.60
2016,09,14,15,04,21.60
2016,09,14,15,05,21.50
2016,09,14,15,06,21.50
2016,09,14,15,07,21.50
2016,09,14,15,08,21.40
2016,09,14,15,09,21.50
2016,09,14,15,10,21.50
2016,09,14,15,11,21.50
2016,09,14,15,12,21.60
2016,09,14,15,13,21.60
2016,09,14,15,14,21.60
2016,09,14,15,15,21.60
2016,09,14,15,16,21.60
2016,09,14,15,17,21.60
2016,09,14,15,18,21.70
2016,09,14,15,19,21.70
2016,09,14,15,20,21.70
2016,09,14,15,21,21.80
2016,09,14,15,22,21.80
2016,09,14,15,23,21.80
2016,09,14,15,24,21.90
2016,09,14,15,25,21.90
2016,09,14,15,26,21.90
2016,09,14,15,27,22.00
2016,09,14,15,28,22.10
2016,09,14,15,29,22.10
2016,09,14,15,30,22.20
2016,09,14,15,31,22.20
2016,09,14,15,32,22.20
2016,09,14,15,33,22.20
2016,09,14,15,34,22.20
2016,09,14,15,35,22.20
2016,09,14,15,36,22.20
2016,09,14,15,37,22.20
2016,09,14,15,38,22.20
2016,09,14,15,39,22.10
2016,09,14,15,40,22.10
2016,09,14,15,41,22.10
2016,09,14,15,42,22.20
2016,09,14,15,43,22.20
2016,09,14,15,44,22.20
2016,09,14,15,45,22.20
2016,09,14,15,46,22.20
2016,09,14,15,47,22.30
2016,09,14,15,48,22.30
2016,09,14,15,49,22.30
2016,09,14,15,50,22.30
2016,09,14,15,51,22.20
2016,09,14,15,52,22.20
2016,09,14,15,53,22.20
2016,09,14,15,54,22.20
2016,09,14,15,55,22.10
2016,09,14,15,56,22.10
2016,09,14,15,57,22.10
2016,09,14,15,58,22.10
2016,09,14,15,59,22.20
2016,09,14,16,00,22.20
2016,09,14,16,01,22.30
2016,09,14,16,02,22.30
2016,09,14,16,03,22.40
2016,09,14,16,04,22.40
2016,09,14,16,05,22.50
2016,09,14,16,06,22.50
2016,09,14,16,07,22.60
2016,09,14,16,08,22.60
2016,09,14,16,09,22.70
2016,09,14,16,10,22.70
2016,09,14,16,11,22.70
2016,09,14,16,12,22.80
2016,09,14,16,13,22.80
2016,09,14,16,14,22.90
2016,09,14,16,15,22.90
2016,09,14,16,16,22.90
2016,09,14,16,17,22.80
2016,09,14,16,18,22.70
2016,09,14,16,19,22.70
2016,09,14,16,20,22.60
2016,09,14,16,21,22.60
2016,09,14,16,22,22.50
2016,09,14,16,23,22.40
2016,09,14,16,24,22.40
2016,09,14,16,25,22.30
2016,09,14,16,26,22.30
2016,09,14,16,27,22.20
2016,09,14,16,28,22.20
2016,09,14,16,29,22.20
2016,09,14,16,30,22.20
2016,09,14,16,31,22.10
2016,09,14,16,32,22.20
2016,09,14,16,33,22.20
2016,09,14,16,34,22.20
2016,09,14,16,35,22.20
2016,09,14,16,36,22.20
2016,09,14,16,37,22.30
2016,09,14,16,38,22.30
2016,09,14,16,39,22.30
2016,09,14,16,40,22.30
2016,09,14,16,41,22.30
2016,09,14,16,42,22.30
2016,09,14,16,43,22.40
2016,09,14,16,44,22.50
2016,09,14,16,45,22.60
2016,09,14,16,46,22.60
2016,09,14,16,47,22.60
2016,09,14,16,48,22.60
2016,09,14,16,49,22.60
2016,09,14,16,50,22.60
2016,09,14,16,51,22.50
2016,09,14,16,52,22.50
2016,09,14,16,53,22.50
2016,09,14,16,54,22.40
2016,09,14,16,55,22.40
2016,09,14,16,56,22.30
2016,09,14,16,57,22.30
2016,09,14,16,58,22.30
2016,09,14,16,59,22.30
2016,09,14,17,00,22.30
2016,09,14,17,01,22.30
2016,09,14,17,02,22.30
2016,09,14,17,03,22.30
2016,09,14,17,04,22.30
2016,09,14,17,05,22.30
2016,09,14,17,06,22.40
2016,09,14,17,07,22.40
2016,09,14,17,08,22.40
2016,09,14,17,09,22.40
2016,09,14,17,10,22.40
2016,09,14,17,11,22.50
2016,09,14,17,12,22.60
2016,09,14,17,13,22.60
2016,09,14,17,14,22.70
2016,09,14,17,15,22.80
2016,09,14,17,16,22.80
2016,09,14,17,17,22.80
2016,09,14,17,18,22.90
2016,09,14,17,19,22.90